DateTimeUTC,F1_A11,F1_S11,BsB_S11,BsG_S11,BsR_S11,BbsB_S11,BbsG_S11,BbsR_S11,BaB_A11,BaG_A11,BaR_A11,Tu_S11,T_S11,Uu_S11,U_S11,P_S11,T1_A11
2021-08-13T15:00:00Z,00000200,20000000,,,,,,,-000.08,-000.40,-000.27,18.3,24.9,10.2,06.8,0673.7,30.8
2021-08-13T15:01:00Z,00000200,20000000,,,,,,,-000.27,0000.12,-000.25,18.3,24.9,10.2,06.8,0673.7,30.9
2021-08-13T15:02:00Z,00000200,20000000,,,,,,,0000.24,0000.19,0000.30,18.3,24.9,10.2,06.8,0673.7,30.8
2021-08-13T15:03:00Z,00000200,60000000,,,,,,,0004.14,0004.02,0003.26,18.3,24.9,10.2,06.8,0673.7,30.8
2021-08-13T15:04:00Z,00000200,40000000,0020.25,0017.97,0011.91,0002.40,0002.05,0001.30,0005.74,0004.96,0004.26,18.4,24.7,10.2,07.0,0674.6,30.9
2021-08-13T15:05:00Z,00000200,00000000,0020.87,0017.79,0012.60,0002.61,0002.22,0001.33,0005.62,0005.58,0004.13,18.5,24.6,10.3,07.1,0674.7,30.9
2021-08-13T15:06:00Z,00000200,00000000,0021.22,0017.75,0012.98,0002.90,0002.08,0001.50,0005.76,0005.21,0004.44,18.5,24.6,10.3,07.1,0674.7,30.9
2021-08-13T15:07:00Z,00000200,00000000,0021.85,0017.89,0012.90,0002.64,0002.02,0001.17,0006.34,0005.55,0004.53,18.5,24.6,10.3,07.0,0674.7,30.9
2021-08-13T15:08:00Z,00000200,00000000,0022.50,0018.85,0013.49,0001.99,0002.23,0001.55,0005.97,0005.88,0004.35,18.5,24.6,10.4,07.1,0674.6,30.9
2021-08-13T15:09:00Z,00000200,00000000,0023.58,0018.88,0013.18,0003.27,0002.17,0001.62,0006.06,0005.70,0004.64,18.5,24.6,10.3,07.1,0674.6,30.8
2021-08-13T15:10:00Z,00000200,00000000,0022.44,0019.41,0013.52,0003.12,0002.34,0001.66,0005.96,0005.21,0004.15,18.5,24.6,10.3,07.1,0674.7,30.9
2021-08-13T15:11:00Z,00000200,00000000,0023.19,0019.74,0013.94,0002.48,0002.30,0001.74,0006.36,0005.87,0004.98,18.5,24.6,10.4,07.2,0674.6,30.9
2021-08-13T15:12:00Z,00000200,00000000,0022.94,0019.55,0013.97,0002.94,0002.54,0001.62,0006.10,0005.80,0004.51,18.5,24.6,10.4,07.2,0674.6,30.9
2021-08-13T15:13:00Z,00000200,00000000,0022.71,0019.31,0013.99,0003.51,0002.26,0001.63,0006.58,0006.13,0004.32,18.5,24.6,10.4,07.1,0674.7,30.9
2021-08-13T15:14:00Z,00000200,00000000,0024.33,0020.14,0014.33,0003.17,0002.39,0001.53,0006.00,0005.70,0005.10,18.5,24.6,10.5,07.2,0674.6,30.8
2021-08-13T15:15:00Z,00000200,00000000,0024.25,0020.49,0014.26,0002.79,0002.33,0001.55,0006.48,0005.70,0004.83,18.5,24.6,10.4,07.1,0674.6,30.8
2021-08-13T15:16:00Z,00000200,00000000,0025.12,0020.58,0014.46,0002.71,0002.35,0001.51,0006.42,0006.09,0004.53,18.5,24.6,10.4,07.1,0674.5,30.8
2021-08-13T15:17:00Z,00000200,00000000,0024.61,0020.45,0014.62,0002.62,0002.18,0001.89,0006.81,0006.21,0004.92,18.5,24.6,10.5,07.2,0674.6,30.9
2021-08-13T15:18:00Z,00000200,00000000,0024.70,0019.73,0014.47,0003.25,0002.22,0001.84,0006.58,0006.20,0005.10,18.5,24.6,10.5,07.2,0674.6,30.8
2021-08-13T15:19:00Z,00000200,00000000,0023.94,0021.03,0014.93,0002.99,0002.49,0001.61,0006.76,0006.44,0004.90,18.5,24.6,10.4,07.2,0674.5,30.9
2021-08-13T15:20:00Z,00000200,00000000,0025.09,0020.50,0014.79,0002.69,0002.40,0001.73,0006.73,0006.07,0005.01,18.4,24.6,10.5,07.3,0674.6,30.8
2021-08-13T15:21:00Z,00000200,00000000,0024.54,0021.11,0014.71,0003.53,0002.54,0001.99,0006.74,0006.40,0005.03,18.5,24.5,10.6,07.3,0674.6,30.8
2021-08-13T15:22:00Z,00000200,00000000,0024.61,0021.00,0014.81,0002.03,0002.30,0001.67,0006.41,0005.85,0005.07,18.5,24.6,10.5,07.3,0674.6,30.8
2021-08-13T15:23:00Z,00000200,00000000,0025.72,0020.49,0014.59,0002.78,0002.25,0001.56,0006.73,0006.21,0004.78,18.5,24.6,10.5,07.3,0674.6,30.8
2021-08-13T15:24:00Z,00000200,00000000,0025.07,0020.54,0014.73,0002.46,0002.51,0001.95,0006.89,0006.66,0005.29,18.5,24.6,10.6,07.3,0674.5,30.9
2021-08-13T15:25:00Z,00000200,00000000,0024.55,0021.35,0014.48,0002.82,0002.23,0001.66,0006.43,0005.81,0004.72,18.5,24.6,10.6,07.3,0674.6,30.8
2021-08-13T15:26:00Z,00000200,00000000,0025.29,0020.71,0014.48,0002.89,0002.60,0001.58,0006.64,0006.51,0004.97,18.4,24.6,10.7,07.3,0674.5,30.9
2021-08-13T15:27:00Z,00000200,00000000,0023.78,0020.82,0014.72,0003.35,0002.36,0001.61,0006.94,0006.38,0005.18,18.4,24.6,10.6,07.3,0674.5,30.8
2021-08-13T15:28:00Z,00000200,00000000,0024.59,0020.82,0014.31,0003.18,0002.42,0001.51,0006.66,0006.39,0005.22,18.5,24.6,10.5,07.3,0674.5,30.9
2021-08-13T15:29:00Z,00000200,00000000,0024.36,0021.02,0015.16,0002.71,0002.27,0001.91,0006.81,0006.09,0004.78,18.6,24.6,10.5,07.3,0674.5,30.9
2021-08-13T15:30:00Z,00000200,00000000,0025.07,0021.01,0014.82,0002.17,0002.34,0001.94,0006.87,0006.17,0005.12,18.7,24.7,10.5,07.3,0674.6,30.9
2021-08-13T15:31:00Z,00000200,00000000,0025.10,0021.12,0015.22,0002.17,0002.19,0001.46,0006.80,0006.67,0005.40,18.7,24.7,10.5,07.3,0674.6,30.9
2021-08-13T15:32:00Z,00000200,00000000,0025.88,0021.25,0015.71,0003.56,0002.30,0001.96,0006.76,0005.93,0004.77,18.7,24.7,10.5,07.3,0674.6,30.9
2021-08-13T15:33:00Z,00000200,00000000,0025.44,0021.42,0015.58,0002.96,0002.34,0001.78,0006.91,0006.61,0004.94,18.7,24.7,10.5,07.3,0674.6,30.9
2021-08-13T15:34:00Z,00000200,00000000,0025.94,0021.77,0015.37,0002.55,0002.26,0001.87,0006.76,0006.20,0005.23,18.7,24.7,10.5,07.3,0674.6,30.9
2021-08-13T15:35:00Z,00000200,00000000,0025.76,0022.11,0015.68,0002.75,0002.68,0001.96,0006.97,0006.60,0005.49,18.7,24.7,10.5,07.3,0674.6,30.9
2021-08-13T15:36:00Z,00000200,00000000,0025.45,0021.67,0015.58,0002.98,0002.26,0001.77,0007.16,0006.50,0005.23,18.7,24.7,10.5,07.3,0674.6,30.9
2021-08-13T15:37:00Z,00000200,00000000,0025.65,0021.75,0015.38,0003.03,0002.70,0001.80,0007.09,0006.75,0005.23,18.7,24.7,10.5,07.3,0674.5,30.9
2021-08-13T15:38:00Z,00000200,00000000,0026.03,0022.13,0015.83,0003.12,0002.71,0001.84,0006.79,0006.09,0005.10,18.6,24.7,10.5,07.3,0674.7,30.9
2021-08-13T15:39:00Z,00000200,00000000,0026.03,0021.68,0015.15,0002.86,0002.89,0002.04,0006.94,0006.49,0004.98,18.6,24.7,10.6,07.4,0674.7,30.9
2021-08-13T15:40:00Z,00000200,00000000,0026.06,0021.45,0015.33,0002.80,0002.74,0002.19,0006.74,0006.46,0005.23,18.6,24.7,10.6,07.4,0674.6,30.9
2021-08-13T15:41:00Z,00000200,00000000,0026.21,0021.86,0015.74,0002.62,0002.63,0001.85,0006.64,0006.30,0005.15,18.6,24.7,10.6,07.4,0674.5,30.9
2021-08-13T15:42:00Z,00000200,00000000,0025.52,0021.17,0015.43,0003.18,0002.58,0001.76,0007.47,0006.68,0005.11,18.6,24.7,10.6,07.3,0674.5,30.9
2021-08-13T15:43:00Z,00000200,00000000,0025.94,0021.14,0015.45,0002.59,0002.69,0002.04,0006.76,0006.31,0005.24,18.6,24.7,10.7,07.4,0674.5,30.9
2021-08-13T15:44:00Z,00000200,00000000,0023.94,0021.29,0015.22,0002.29,0002.11,0001.72,0006.98,0006.66,0005.07,18.6,24.7,10.6,07.4,0674.5,30.9
2021-08-13T15:45:00Z,00000200,00000000,0026.38,0021.31,0015.61,0003.17,0002.72,0002.09,0006.95,0006.60,0005.47,18.6,24.7,10.7,07.4,0674.5,30.9
2021-08-13T15:46:00Z,00000200,00000000,0024.65,0021.88,0015.63,0002.65,0002.51,0001.88,0006.99,0006.44,0005.14,18.6,24.7,10.8,07.5,0674.4,30.9
2021-08-13T15:47:00Z,00000200,00000000,0024.83,0021.83,0015.71,0002.71,0002.17,0001.89,0007.24,0006.38,0005.40,18.6,24.6,10.8,07.5,0674.4,30.9
2021-08-13T15:48:00Z,00000200,00000000,0026.35,0021.90,0015.83,0003.16,0002.61,0001.86,0006.85,0006.91,0005.18,18.6,24.7,10.9,07.5,0674.5,30.9
2021-08-13T15:49:00Z,00000200,00000000,0026.64,0022.17,0015.80,0003.02,0002.53,0002.03,0007.34,0006.65,0005.03,18.6,24.7,11.0,07.6,0674.5,30.9
2021-08-13T15:50:00Z,00000200,00000000,0025.98,0022.28,0016.47,0004.20,0002.57,0002.19,0007.12,0006.63,0005.40,18.6,24.6,10.9,07.5,0674.4,30.9
2021-08-13T15:51:00Z,00000200,00000000,0026.61,0022.09,0015.71,0002.69,0002.30,0001.81,0007.08,0006.53,0005.78,18.6,24.6,11.0,07.6,0674.5,30.9
2021-08-13T15:52:00Z,00000200,00000000,0027.04,0022.43,0016.01,0002.73,0002.56,0002.12,0007.35,0006.96,0004.96,18.6,24.6,11.1,07.7,0674.4,30.8
2021-08-13T15:53:00Z,00000200,00000000,0026.20,0021.52,0016.47,0003.12,0002.31,0001.92,0006.87,0006.38,0005.52,18.6,24.6,11.0,07.6,0674.5,30.8
2021-08-13T15:54:00Z,00000200,00000000,0027.12,0022.59,0016.11,0002.78,0002.56,0001.78,0007.26,0006.80,0005.20,18.5,24.6,11.0,07.6,0674.4,30.9
2021-08-13T15:55:00Z,00000200,00000000,0026.66,0022.16,0015.73,0003.01,0002.42,0001.84,0007.11,0006.49,0005.34,18.6,24.6,11.0,07.6,0674.4,30.9
2021-08-13T15:56:00Z,00000200,00000000,0026.13,0022.22,0016.00,0002.93,0002.32,0001.83,0007.24,0006.51,0005.24,18.6,24.6,11.0,07.6,0674.5,30.9
2021-08-13T15:57:00Z,00000200,40000000,,,,,,,0002.16,0002.21,0001.68,18.6,24.6,10.7,07.4,0674.3,30.8
2021-08-13T15:58:00Z,00000200,60000000,,,,,,,-000.39,-000.14,-000.08,18.4,24.7,10.9,07.4,0673.5,30.9
2021-08-13T15:59:00Z,00000200,20000000,,,,,,,0000.42,0000.11,0000.18,18.4,24.8,11.0,07.4,0673.5,30.9
